User: anonymous   Login
Location: Austin
(30.3000°N, 97.7500°W)
Time: 19:15:09
(UTC-05:00)
Language:

Cosmos 1802 Rocket - Orbit

View from above orbital plane
View from above orbital plane
View from above satellite
View from above satellite

Ground track
Ground track

The orbit data is extracted from the following two-line orbital elements,

1 17160U 86093B   24114.26632326  .00000171  00000-0  16276-3 0  9997
2 17160  82.9320   8.0164 0039327  17.2229 104.0273 13.74768797876352
Epoch (UTC): 23 April 2024 06:23:30
Eccentricity: 0.0039327
inclination: 82.9320°
perigee height: 953 km
apogee height: 1011 km
right ascension of ascending node: 8.0164°
argument of perigee: 17.2229°
revolutions per day: 13.74768797
mean anomaly at epoch: 104.0273°
orbit number at epoch: 87635

The dashed part of the orbit path shows where the satellite is in the earth's shadow,  

DLR